GW5002 Weather Reports


time (UTC)temp
C
wind
direction
speed
KPH
gust
KPH
rain 1hr
cm
rain 24hr
cm
rain mn
cm
humidity
%
barometer
mb
20260507064505 23 244 0.0 0.0 0.00 0.00 0.00 82 1012.3
20260507063003 23 203 0.0 0.0 0.00 0.00 0.00 82 1012.5
20260507061505 23 241 0.0 0.0 0.00 0.00 0.00 82 1012.9
20260507060015 23 221 0.0 0.0 0.00 0.00 0.00 82 1013.4
20260507054504 23 223 0.0 0.0 0.00 0.00 0.00 82 1013.8
20260507053004 23 204 0.0 0.0 0.00 0.00 0.00 82 1014.1
20260507051507 23 219 0.0 0.0 0.00 0.00 0.00 82 1014.0
20260507050007 23 230 0.0 0.0 0.00 0.00 0.00 82 1014.2
20260507044505 23 247 0.0 0.0 0.00 0.00 0.00 82 1014.1
20260507043004 23 215 0.0 0.0 0.00 0.00 0.00 82 1014.2
20260507041520 23 203 0.0 0.0 0.00 0.00 0.00 83 1014.1
20260507040005 23 217 0.0 0.0 0.00 0.00 0.00 83 1014.0
20260507034511 23 226 0.0 0.0 0.00 0.00 0.00 84 1013.8
20260507033007 23 230 0.0 0.0 0.00 0.00 0.00 84 1013.7
20260507031503 23 185 0.0 0.0 0.00 0.00 0.00 83 1013.7
20260507030012 23 225 0.0 0.0 0.00 0.00 0.00 83 1013.1
20260507024509 23 232 0.0 0.0 0.00 0.00 0.00 83 1013.8
20260507023007 23 238 0.0 0.0 0.00 0.00 0.00 82 1013.2
20260507021510 23 144 0.0 0.0 0.00 0.00 0.00 83 1013.4
20260507020009 23 237 0.0 0.0 0.00 0.00 0.00 83 1013.9
20260507014516 23 199 0.0 0.0 0.00 0.00 0.00 83 1014.0
20260507013020 23 223 0.0 0.0 0.00 0.00 0.00 82 1013.9
20260507011518 23 158 0.0 0.0 0.00 0.00 0.00 81 1014.1
20260507010012 23 209 0.0 0.0 0.00 0.00 0.00 80 1014.3
20260507004529 23 216 0.0 0.0 0.00 0.00 0.00 81 1014.2
20260507003012 23 175 0.0 0.0 0.00 0.00 0.00 80 1014.0
20260507001512 23 171 0.0 0.0 0.00 0.00 0.00 78 1014.1
20260507000024 23 227 0.0 0.0 0.00 0.00 0.00 77 1014.1
20260506234516 23 177 0.0 0.0 0.00 0.00 0.00 75 1014.4
20260506233012 23 218 0.0 0.0 0.00 0.00 0.00 74 1014.2
20260506231527 23 230 0.0 0.0 0.00 0.00 0.00 72 1014.3
20260506230013 24 184 0.0 0.0 0.00 0.00 0.00 70 1014.3
20260506224516 24 184 0.0 0.0 0.00 0.00 0.00 69 1014.2
20260506223010 25 161 0.0 0.0 0.00 0.00 0.00 67 1014.2
20260506221515 25 171 0.0 0.0 0.00 0.00 0.00 67 1014.0
20260506220019 25 202 0.0 0.0 0.00 0.00 0.00 66 1013.8
20260506214519 26 244 0.0 0.0 0.00 0.00 0.00 65 1014.1
20260506213018 26 189 0.0 0.0 0.00 0.00 0.00 64 1014.3
20260506211516 26 168 0.0 0.0 0.00 0.00 0.00 64 1014.3
20260506210022 26 232 0.0 0.0 0.00 0.00 0.00 63 1014.4
20260506204520 26 236 0.0 0.0 0.00 0.00 0.00 63 1014.2
20260506203025 26 235 0.0 0.0 0.00 0.00 0.00 64 1014.6
20260506201530 26 181 0.0 0.0 0.00 0.00 0.00 64 1014.7
20260506200019 26 217 0.0 0.0 0.00 0.00 0.00 63 1014.7
20260506194504 26 223 0.0 0.0 0.00 0.00 0.00 65 1014.9
20260506193009 26 205 0.0 0.0 0.00 0.00 0.00 64 1015.0
20260506191512 27 198 0.0 0.0 0.00 0.00 0.00 64 1015.1
20260506190018 27 229 0.0 0.0 0.00 0.00 0.00 61 1015.4
20260506184521 27 212 0.0 0.0 0.00 0.00 0.00 63 1015.8
20260506183004 27 233 0.0 0.0 0.00 0.00 0.00 65 1016.1
20260506181509 26 135 0.0 0.0 0.00 0.00 0.00 67 1016.0
20260506180015 26 208 0.0 0.0 0.00 0.00 0.00 67 1016.1
20260506174520 26 225 0.0 0.0 0.00 0.00 0.00 68 1016.4
20260506173024 26 209 0.0 0.0 0.00 0.00 0.00 68 1016.6
20260506171507 26 213 0.0 0.0 0.00 0.00 0.00 65 1016.7
20260506170106 26 197 0.0 0.0 0.00 0.00 0.00 66 1016.7
20260506164518 26 251 0.0 0.0 0.00 0.00 0.00 67 1016.6
20260506163022 26 178 0.0 0.0 0.00 0.00 0.00 66 1016.6
20260506161528 26 216 0.0 0.0 0.00 0.00 0.00 67 1016.9
20260506160011 26 235 0.0 0.0 0.00 0.00 0.00 66 1017.1
20260506154520 25 234 0.0 0.0 0.00 0.00 0.00 66 1017.0
20260506153020 25 224 0.0 0.0 0.00 0.00 0.00 65 1017.2
20260506151524 26 300 0.0 0.0 0.00 0.00 0.00 64 1017.2
20260506150012 25 208 0.0 0.0 0.00 0.00 0.00 58 1017.1
20260506144515 25 222 0.0 0.0 0.00 0.00 0.00 58 1016.9
20260506143028 25 212 0.0 0.0 0.00 0.00 0.00 63 1016.7
20260506141526 25 222 0.0 0.0 0.00 0.00 0.00 63 1016.7
20260506140026 24 221 0.0 0.0 0.00 0.00 0.00 62 1016.8
20260506134513 24 217 0.0 0.0 0.00 0.00 0.00 64 1016.5
20260506133019 23 220 0.0 0.0 0.00 0.00 0.00 67 1016.4
20260506131525 23 221 0.0 0.0 0.00 0.00 0.00 70 1016.4
20260506130030 -17 0.0 0.0 0.00 0.00 0.00 1016.2
20260506124526 -17 0.0 0.0 0.00 0.00 0.00 1016.1
20260506123030 -17 0.0 0.0 0.00 0.00 0.00 1016.1
20260506121528 -17 0.0 0.0 0.00 0.00 0.00 1016.2
20260506120038 -17 0.0 0.0 0.00 0.00 0.00 1016.1
20260506114526 -17 0.0 0.0 0.00 0.00 0.00 1015.9
20260506113032 -17 0.0 0.0 0.00 0.00 0.00 1015.9
20260506111528 -17 0.0 0.0 0.00 0.00 0.00 1015.6
20260506110031 -17 0.0 0.0 0.00 0.00 0.00 1015.6
20260506104530 -17 0.0 0.0 0.00 0.00 0.00 1015.7
20260506103030 -17 0.0 0.0 0.00 0.00 0.00 1015.4
20260506101526 -17 0.0 0.0 0.00 0.00 0.00 1015.5
20260506100028 -17 0.0 0.0 0.00 0.00 0.00 1015.4
20260506094528 -17 0.0 0.0 0.00 0.00 0.00 1015.4
20260506093029 -17 0.0 0.0 0.00 0.00 0.00 1015.5
20260506091532 -17 0.0 0.0 0.00 0.00 0.00 1015.5
20260506090041 -17 0.0 0.0 0.00 0.00 0.00 1015.5
20260506084526 -17 0.0 0.0 0.00 0.00 0.00 1015.6
20260506083032 -17 0.0 0.0 0.00 0.00 0.00 1015.6
20260506081531 -17 0.0 0.0 0.00 0.00 0.00 1015.6
20260506073015 18 187 0.0 0.0 0.00 0.00 0.00 83 1015.4
20260506071519 18 166 0.0 0.0 0.00 0.00 0.00 80 1015.4